Regional Weather Roundup
Issued by NWS Upton, NY

Current Version | Previous Version | Graphics & Text | Print | Product List | Glossary Off
Versions: 1 2 3 4 5 6 7 8 9 10 11 12 13 14 15 16 17 18 19 20 21 22 23 24 25 26 27 28 29 30 31 32 33 34 35 36 37 38 39 40 41 42 43 44 45 46 47 48 49 50

000
ASUS41 KOKX 261508
RWROKX

REGIONAL WEATHER ROUNDUP
NATIONAL WEATHER SERVICE NEW YORK NY
1100 AM EDT SUN MAR 26 2017

NOTE: "FAIR" INDICATES FEW OR NO CLOUDS BELOW 12,000 FEET WITH NO
SIGNIFICANT WEATHER AND/OR OBSTRUCTIONS TO VISIBILITY.

NYZ071-072-176-178-NJZ106-104-261600-
NEW YORK CITY METRO AREA

CITY           SKY/WX    TMP DP  RH WIND       PRES   REMARKS
Central Park   CLOUDY    39  32  76 E14G20    30.50R WCI  31
Wall St Helipt CLOUDY    41  34  76 NE12      30.49R
LaGuardia APRT CLOUDY    41  32  70 NE14      30.47R
Kennedy INTL   CLOUDY    41  36  82 E12       30.48R
Breezy Point     N/A     39 N/A N/A E10         N/A  WCI  32
Newark/Liberty CLOUDY    41  33  73 NE9       30.48R
Teterboro      CLOUDY    40  32  73 E9G21     30.48R WCI  34
$$

NYZ177-179-078>081-261600-
LONG ISLAND NEW YORK

CITY           SKY/WX    TMP DP  RH WIND       PRES   REMARKS
Jones Beach      N/A     39 N/A N/A E17G23      N/A  WCI  30
Matinecock PT    N/A     37 N/A N/A E22         N/A  WCI  27
Farmingdale    CLOUDY    40  35  83 E10       30.48R WCI  33
MacArthur/ISP  CLOUDY    40  36  86 E8        30.48R WCI  34
Shirley        CLOUDY    39  36  89 VRB5      30.49R
Westhampton    CLOUDY    40  33  76 E8        30.50R WCI  34
East Hampton   CLOUDY    40  30  67 E8G18     30.49R WCI  35
Montauk          N/A     40  33  76 E7        30.50S
$$

NYZ052-065-067-261600-
HUDSON VALLEY

CITY           SKY/WX    TMP DP  RH WIND       PRES   REMARKS
White Plains   PTSUNNY   38  30  73 E13G18    30.47R WCI  30
Newburgh       CLOUDY    36  32  87 E12       30.49R WCI  27
Montgomery     CLOUDY    36  30  79 NE9       30.47S WCI  29
Poughkeepsie   CLOUDY    34  31  88 N5        30.50R WCI  30
Albany         CLOUDY    33  20  58 CALM      30.49S
$$

NJZ001-105-106-008-010-013-015-019>022-104-261600-
NEW JERSEY

CITY           SKY/WX    TMP DP  RH WIND       PRES   REMARKS
Newark/Liberty CLOUDY    41  33  73 NE9       30.48R
Teterboro      CLOUDY    40  32  73 E9G21     30.48R WCI  34
Caldwell       CLOUDY    40  32  73 E13       30.48R WCI  32
Somerville     CLOUDY    42  33  70 E7        30.45R
Linden         CLOUDY    41  33  74 E8        30.48R
Sussex         CLOUDY    35  32  88 NE8       30.45R WCI  29
Andover          N/A     38  32  79 CALM      30.44R
Trenton        CLOUDY    42  36  79 E8        30.44R
Millville      CLOUDY    47  42  83 E12G22    30.39S
Atlantic City  CLOUDY    45  38  76 E15       30.41R
Wrightstown    CLOUDY    41  37  87 E14       30.41R
Toms River     CLOUDY    42  38  85 NE10G17   30.45R
Belmar         CLOUDY    40  37  89 E14G20    30.46R WCI  32
$$

PAZ047>061-062-071-261600-
EASTERN PENNSYLVANIA

CITY           SKY/WX    TMP DP  RH WIND       PRES   REMARKS
Philadelphia   CLOUDY    44  37  76 E14       30.42R
Allentown      CLOUDY    43  33  68 E14       30.43R
Scranton       CLOUDY    39  32  76 SE7       30.38R WCI  34
$$

CTZ002-004>006-009-010-012-RIZ004-006-007-MAZ004-011-015-261600-
SOUTHERN NEW ENGLAND
 IN CT

CITY           SKY/WX    TMP DP  RH WIND       PRES   REMARKS
Bradley INTL   CLOUDY    35  26  69 N7        30.52S WCI  29
Hartford       LGT RAIN  35  28  75 N5        30.52R WCI  31
Danbury        CLOUDY    36  29  75 NE9       30.49R WCI  29
Wtrbury/Oxford CLOUDY    32  27  80 E9        30.49R WCI  24
Bridgeport     CLOUDY    39  30  70 NE10      30.50R WCI  32
Meriden        LGT RAIN  36  29  75 N5        30.52R WCI  32
New Haven      CLOUDY    38  28  67 NE7       30.51R WCI  33
Chester        NOT AVBL
Groton         LGT RAIN  40  27  59 E9        30.49F WCI  34
Wilimantic     CLOUDY    40  27  59 E9        30.51S WCI  34

 IN RI

CITY           SKY/WX    TMP DP  RH WIND       PRES   REMARKS
Providence     CLOUDY    42  28  57 E9        30.52S
Block Island   CLOUDY    39  32  76 E14       30.50R WCI  31
Westerly       CLOUDY    41  28  60 NE10      30.51R
 IN MA

CITY           SKY/WX    TMP DP  RH WIND       PRES   REMARKS
Boston         PTSUNNY   40  28  62 E14       30.57R WCI  32
Worcester      CLOUDY    34  20  56 E12G20    30.48S WCI  25
Westfield      CLOUDY    35  24  64 VRB5      30.52R WCI  31
Provincetown   SUNNY     42  27  55 NE17G23   30.56R
Nantucket      MOSUNNY   44  31  60 E18G26    30.50R
$$

ANZ330-335-338-340-345-350-353-355-261600-
COASTAL MARINE OBSERVATIONS


STATION/POSITION TIME  SKY/WX   TEMP    WIND        PRES    VSBY  WAVE
                                AIR SEA DIR/SP/G                  HT/PER
                 (UTC)          (F)     (DEG/KT/KT) (MB)    (MI)  (FT/S)
NY HARB ENTRANCE 1350            40 42   70/ 16/ 19 1031.1          4/ 6
20 S FIRE ISLAND 1450            41 40   80/ 19/ 23 1030.5          5/ 6
GREAT SOUTH BAY  NOT AVBL
23 SSW MONTAUK P 1350            40 43              1031.9          4/ 5
15 E BARNEGAT LI 1430               43                N/A           6/ 6
HUDSON CANYON    1350            44 45   70/ 17/ 19 1029.4          6/ 6
KINGS POINT      1442            39 39              1032.0
EXECUTION ROCKS  NOT AVBL
CENTRAL LI SOUND 1415            38      80/ 14/ 16   N/A           2/ 3
EASTERN LI SOUND NOT AVBL
ROBBINS REEF     1442            39      70/ 13/ 14 1032.0
$$


>>>>>>>>>>>>>>>>>>>>>>>>>>>> KEY <<<<<<<<<<<<<<<<<<<<<<<<<<<
>                                                          <
>     SKY/WX - Sky Condition/Present Weather               <
>     TMP    - Temperature in Fahrenheit                   <
>     DP     - Dew Point in Fahrenheit                     <
>     RH     - Relative Humidity in Percent                <
>     WIND   - Direction (from) and Speed in MPH           <
>     PRES   - Mean Sea Level Pressure (inches of Hg)      <
>     WCI    - Wind Chill Index                            <
>     VSB    - VISIBILITY IN MILES                         <
>     HX     - HEAT INDEX                                  <
>     TC     - TEMPERATURE IN CELSIUS                      <
>     VRB    - VARIABLE WIND DIRECTION                     <
>                                                          <
>>>>>>>>>>>>>>>>>>>>>>>>>>>> KEY <<<<<<<<<<<<<<<<<<<<<<<<<<<



USA.gov is the U.S. government's official web portal to all federal, state and local government web resources and services.